Time,TemperatureF,DewpointF,PressureIn,WindDirection,WindDirectionDegrees,WindSpeedMPH,WindSpeedGustMPH,Humidity,HourlyPrecipIn,Conditions,Clouds,dailyrainin,SoftwareType,DateUTC
2013-05-14 00:01:00,62.0,51.4,29.21,SW,223,0.0,0.0,68,0.00,,---,0.00,VWS V14.00,2013-05-14 05:01:00,
2013-05-14 00:06:00,61.9,51.6,29.21,SW,223,0.0,0.0,69,0.00,,---,0.00,VWS V14.00,2013-05-14 05:06:00,
2013-05-14 00:10:00,61.9,51.2,29.21,SW,223,0.0,0.0,68,0.00,,---,0.00,VWS V14.00,2013-05-14 05:10:00,
2013-05-14 00:13:00,61.9,51.2,29.21,SW,223,0.0,0.0,68,0.00,,---,0.00,VWS V14.00,2013-05-14 05:13:00,
2013-05-14 00:16:00,61.9,51.2,29.21,SW,223,0.0,0.0,68,0.00,,---,0.00,VWS V14.00,2013-05-14 05:16:00,
2013-05-14 00:19:00,61.7,51.0,29.21,SW,223,0.0,0.0,68,0.00,,---,0.00,VWS V14.00,2013-05-14 05:19:00,
2013-05-14 00:21:00,61.7,51.0,29.21,SW,223,0.0,0.0,68,0.00,,---,0.00,VWS V14.00,2013-05-14 05:21:00,
2013-05-14 00:25:00,61.7,51.0,29.21,SW,223,0.0,0.0,68,0.00,,---,0.00,VWS V14.00,2013-05-14 05:25:00,
2013-05-14 00:31:00,61.5,50.8,29.21,SW,223,0.0,0.0,68,0.00,,---,0.00,VWS V14.00,2013-05-14 05:31:00,
2013-05-14 00:34:00,61.5,51.2,29.21,SW,223,0.0,0.0,69,0.00,,---,0.00,VWS V14.00,2013-05-14 05:34:00,
2013-05-14 00:36:00,61.5,51.2,29.21,SW,223,0.0,0.0,69,0.00,,---,0.00,VWS V14.00,2013-05-14 05:36:00,
2013-05-14 00:40:00,61.1,50.9,29.21,SW,223,0.0,0.0,69,0.00,,---,0.00,VWS V14.00,2013-05-14 05:40:00,
2013-05-14 00:43:00,61.0,51.1,29.21,SW,223,0.0,0.0,70,0.00,,---,0.00,VWS V14.00,2013-05-14 05:43:00,
2013-05-14 00:49:00,60.8,51.3,29.21,SW,223,0.0,0.0,71,0.00,,---,0.00,VWS V14.00,2013-05-14 05:49:00,
2013-05-14 00:52:00,60.6,51.5,29.21,SW,223,0.0,0.0,72,0.00,,---,0.00,VWS V14.00,2013-05-14 05:52:00,
2013-05-14 00:55:00,60.4,51.7,29.21,SW,223,0.0,0.0,73,0.00,,---,0.00,VWS V14.00,2013-05-14 05:55:00,
2013-05-14 00:58:00,60.2,51.6,29.21,SW,223,0.0,0.0,73,0.00,,---,0.00,VWS V14.00,2013-05-14 05:58:00,
2013-05-14 01:04:00,60.2,51.9,29.21,SW,223,0.0,0.0,74,0.00,,---,0.00,VWS V14.00,2013-05-14 06:04:00,
2013-05-14 01:06:00,60.2,51.9,29.21,SW,223,0.0,0.0,74,0.00,,---,0.00,VWS V14.00,2013-05-14 06:06:00,
2013-05-14 01:07:00,60.2,51.9,29.21,SW,223,0.0,0.0,74,0.00,,---,0.00,VWS V14.00,2013-05-14 06:07:00,
2013-05-14 01:10:00,60.2,51.9,29.21,SW,223,0.0,0.0,74,0.00,,---,0.00,VWS V14.00,2013-05-14 06:10:00,
2013-05-14 01:13:00,60.2,51.9,29.21,SW,223,0.0,0.0,74,0.00,,---,0.00,VWS V14.00,2013-05-14 06:13:00,
2013-05-14 01:16:00,60.1,51.8,29.21,SW,223,0.0,0.0,74,0.00,,---,0.00,VWS V14.00,2013-05-14 06:16:00,
2013-05-14 01:19:00,60.1,51.8,29.18,SW,223,0.0,0.0,74,0.00,,---,0.00,VWS V14.00,2013-05-14 06:19:00,
2013-05-14 01:21:00,59.9,51.6,29.18,SW,223,0.0,0.0,74,0.00,,---,0.00,VWS V14.00,2013-05-14 06:21:00,
2013-05-14 01:25:00,59.7,51.8,29.18,SW,223,0.0,0.0,75,0.00,,---,0.00,VWS V14.00,2013-05-14 06:25:00,
2013-05-14 01:28:00,59.5,52.0,29.18,SW,223,0.0,0.0,76,0.00,,---,0.00,VWS V14.00,2013-05-14 06:28:00,
2013-05-14 01:34:00,59.2,51.6,29.18,SW,223,0.0,0.0,76,0.00,,---,0.00,VWS V14.00,2013-05-14 06:34:00,
2013-05-14 01:36:00,59.2,51.6,29.18,SW,223,0.0,0.0,76,0.00,,---,0.00,VWS V14.00,2013-05-14 06:36:00,
2013-05-14 01:37:00,59.2,51.6,29.18,SW,223,0.0,0.0,76,0.00,,---,0.00,VWS V14.00,2013-05-14 06:37:00,
2013-05-14 01:40:00,59.0,51.4,29.18,SW,223,0.0,0.0,76,0.00,,---,0.00,VWS V14.00,2013-05-14 06:40:00,
2013-05-14 01:43:00,59.2,51.6,29.18,SW,223,0.0,0.0,76,0.00,,---,0.00,VWS V14.00,2013-05-14 06:43:00,
2013-05-14 01:46:00,59.2,51.2,29.18,SW,223,0.0,0.0,75,0.00,,---,0.00,VWS V14.00,2013-05-14 06:46:00,
2013-05-14 01:51:00,59.3,51.4,29.18,SW,223,0.0,0.0,75,0.00,,---,0.00,VWS V14.00,2013-05-14 06:51:00,
2013-05-14 01:52:00,59.3,51.4,29.18,SW,223,0.0,0.0,75,0.00,,---,0.00,VWS V14.00,2013-05-14 06:52:00,
2013-05-14 01:58:00,59.0,51.4,29.18,SW,223,0.0,0.0,76,0.00,,---,0.00,VWS V14.00,2013-05-14 06:58:00,
2013-05-14 02:01:00,59.0,51.8,29.18,SW,223,0.0,0.0,77,0.00,,---,0.00,VWS V14.00,2013-05-14 07:01:00,
2013-05-14 02:04:00,58.8,51.6,29.18,SW,223,0.0,0.0,77,0.00,,---,0.00,VWS V14.00,2013-05-14 07:04:00,
2013-05-14 02:07:00,58.8,52.0,29.18,SW,223,0.0,0.0,78,0.00,,---,0.00,VWS V14.00,2013-05-14 07:07:00,
2013-05-14 02:10:00,59.0,51.8,29.18,SW,223,0.0,0.0,77,0.00,,---,0.00,VWS V14.00,2013-05-14 07:10:00,
2013-05-14 02:17:00,59.0,51.8,29.18,SW,223,0.0,0.0,77,0.00,,---,0.00,VWS V14.00,2013-05-14 07:17:00,
2013-05-14 02:20:00,59.0,51.4,29.18,SW,223,0.0,0.0,76,0.00,,---,0.00,VWS V14.00,2013-05-14 07:20:00,
2013-05-14 02:23:00,59.0,51.1,29.18,SW,223,0.0,0.0,75,0.00,,---,0.00,VWS V14.00,2013-05-14 07:23:00,
2013-05-14 02:26:00,59.0,51.1,29.18,SW,223,0.0,0.0,75,0.00,,---,0.00,VWS V14.00,2013-05-14 07:26:00,
2013-05-14 02:32:00,59.0,51.1,29.18,SW,223,0.0,0.0,75,0.00,,---,0.00,VWS V14.00,2013-05-14 07:32:00,
2013-05-14 02:35:00,59.0,51.1,29.18,SW,223,0.0,0.0,75,0.00,,---,0.00,VWS V14.00,2013-05-14 07:35:00,
2013-05-14 02:36:00,59.0,51.1,29.18,SW,223,0.0,0.0,75,0.00,,---,0.00,VWS V14.00,2013-05-14 07:36:00,
2013-05-14 02:41:00,59.0,51.4,29.18,SW,223,0.0,0.0,76,0.00,,---,0.00,VWS V14.00,2013-05-14 07:41:00,
2013-05-14 02:44:00,59.0,51.8,29.18,SW,223,0.0,0.0,77,0.00,,---,0.00,VWS V14.00,2013-05-14 07:44:00,
2013-05-14 02:47:00,59.0,51.8,29.18,SW,223,0.0,0.0,77,0.00,,---,0.00,VWS V14.00,2013-05-14 07:47:00,
2013-05-14 02:50:00,59.0,51.8,29.18,SW,223,0.0,0.0,77,0.00,,---,0.00,VWS V14.00,2013-05-14 07:50:00,
2013-05-14 02:51:00,59.0,51.8,29.18,SW,223,0.0,0.0,77,0.00,,---,0.00,VWS V14.00,2013-05-14 07:51:00,
2013-05-14 02:53:00,59.0,51.8,29.18,SW,223,0.0,0.0,77,0.00,,---,0.00,VWS V14.00,2013-05-14 07:53:00,
2013-05-14 02:56:00,58.8,51.6,29.18,SW,223,0.0,0.0,77,0.00,,---,0.00,VWS V14.00,2013-05-14 07:56:00,
2013-05-14 02:59:00,58.6,51.8,29.18,SW,223,0.0,0.0,78,0.00,,---,0.00,VWS V14.00,2013-05-14 07:59:00,
2013-05-14 03:02:00,58.6,51.8,29.18,SW,223,0.0,0.0,78,0.00,,---,0.00,VWS V14.00,2013-05-14 08:02:00,
2013-05-14 03:05:00,58.8,51.6,29.18,SW,223,0.0,0.0,77,0.00,,---,0.00,VWS V14.00,2013-05-14 08:05:00,
2013-05-14 03:08:00,58.8,51.3,29.18,SW,223,0.0,0.0,76,0.00,,---,0.00,VWS V14.00,2013-05-14 08:08:00,
2013-05-14 03:14:00,58.8,51.3,29.18,SW,223,0.0,0.0,76,0.00,,---,0.00,VWS V14.00,2013-05-14 08:14:00,
2013-05-14 03:17:00,58.6,51.4,29.18,SW,223,0.0,0.0,77,0.00,,---,0.00,VWS V14.00,2013-05-14 08:17:00,
2013-05-14 03:20:00,58.6,51.8,29.18,SW,223,0.0,0.0,78,0.00,,---,0.00,VWS V14.00,2013-05-14 08:20:00,
2013-05-14 03:21:00,58.6,51.8,29.18,SW,223,0.0,0.0,78,0.00,,---,0.00,VWS V14.00,2013-05-14 08:21:00,
2013-05-14 03:26:00,58.4,51.6,29.18,SW,223,0.0,0.0,78,0.00,,---,0.00,VWS V14.00,2013-05-14 08:26:00,
2013-05-14 03:29:00,58.6,51.4,29.18,SW,223,0.0,0.0,77,0.00,,---,0.00,VWS V14.00,2013-05-14 08:29:00,
2013-05-14 03:32:00,58.6,51.4,29.18,SW,223,0.0,0.0,77,0.00,,---,0.00,VWS V14.00,2013-05-14 08:32:00,
2013-05-14 03:35:00,58.6,51.8,29.18,SW,223,0.0,0.0,78,0.00,,---,0.00,VWS V14.00,2013-05-14 08:35:00,
2013-05-14 03:38:00,58.4,51.6,29.18,SW,223,0.0,0.0,78,0.00,,---,0.00,VWS V14.00,2013-05-14 08:38:00,
2013-05-14 03:44:00,58.1,51.3,29.18,SW,223,0.0,0.0,78,0.00,,---,0.00,VWS V14.00,2013-05-14 08:44:00,
2013-05-14 03:47:00,58.1,51.6,29.18,SW,223,0.0,0.0,79,0.00,,---,0.00,VWS V14.00,2013-05-14 08:47:00,
2013-05-14 03:50:00,57.9,51.4,29.18,SW,223,0.0,0.0,79,0.00,,---,0.00,VWS V14.00,2013-05-14 08:50:00,
2013-05-14 03:53:00,58.1,51.6,29.18,SW,223,0.0,0.0,79,0.00,,---,0.00,VWS V14.00,2013-05-14 08:53:00,
2013-05-14 03:56:00,58.1,51.6,29.18,SW,223,0.0,0.0,79,0.00,,---,0.00,VWS V14.00,2013-05-14 08:56:00,
2013-05-14 03:59:00,58.1,51.6,29.18,SW,223,0.0,0.0,79,0.00,,---,0.00,VWS V14.00,2013-05-14 08:59:00,
2013-05-14 04:02:00,58.1,51.6,29.18,SW,223,0.0,0.0,79,0.00,,---,0.00,VWS V14.00,2013-05-14 09:02:00,
2013-05-14 04:05:00,58.1,51.6,29.18,SW,223,0.0,0.0,79,0.00,,---,0.00,VWS V14.00,2013-05-14 09:05:00,
2013-05-14 04:06:00,58.1,51.6,29.18,SW,223,0.0,0.0,79,0.00,,---,0.00,VWS V14.00,2013-05-14 09:06:00,
2013-05-14 04:11:00,57.7,51.3,29.18,SW,223,0.0,0.0,79,0.00,,---,0.00,VWS V14.00,2013-05-14 09:11:00,
2013-05-14 04:14:00,57.7,51.6,29.18,SW,223,0.0,0.0,80,0.00,,---,0.00,VWS V14.00,2013-05-14 09:14:00,
2013-05-14 04:17:00,57.7,51.6,29.18,SW,223,0.0,0.0,80,0.00,,---,0.00,VWS V14.00,2013-05-14 09:17:00,
2013-05-14 04:20:00,57.7,51.9,29.18,SW,223,0.0,0.0,81,0.00,,---,0.00,VWS V14.00,2013-05-14 09:20:00,
2013-05-14 04:21:00,57.7,51.9,29.18,SW,223,0.0,0.0,81,0.00,,---,0.00,VWS V14.00,2013-05-14 09:21:00,
2013-05-14 04:26:00,57.7,51.9,29.18,SW,223,0.0,0.0,81,0.00,,---,0.00,VWS V14.00,2013-05-14 09:26:00,
2013-05-14 04:29:00,57.5,51.8,29.18,SW,223,0.0,0.0,81,0.00,,---,0.00,VWS V14.00,2013-05-14 09:29:00,
2013-05-14 04:32:00,57.5,52.1,29.18,SW,223,0.0,0.0,82,0.00,,---,0.00,VWS V14.00,2013-05-14 09:32:00,
2013-05-14 04:35:00,57.4,51.9,29.18,SW,223,0.0,0.0,82,0.00,,---,0.00,VWS V14.00,2013-05-14 09:35:00,
2013-05-14 04:38:00,57.5,52.1,29.18,SW,223,0.0,0.0,82,0.00,,---,0.00,VWS V14.00,2013-05-14 09:38:00,
2013-05-14 04:41:00,57.5,52.1,29.18,SW,223,0.0,0.0,82,0.00,,---,0.00,VWS V14.00,2013-05-14 09:41:00,
2013-05-14 04:44:00,57.5,52.1,29.18,SW,223,0.0,0.0,82,0.00,,---,0.00,VWS V14.00,2013-05-14 09:44:00,
2013-05-14 04:47:00,57.5,52.1,29.15,SW,223,0.0,0.0,82,0.00,,---,0.00,VWS V14.00,2013-05-14 09:47:00,
2013-05-14 04:50:00,57.5,52.1,29.15,SW,223,0.0,0.0,82,0.00,,---,0.00,VWS V14.00,2013-05-14 09:50:00,
2013-05-14 04:51:00,57.4,51.9,29.15,SW,223,0.0,0.0,82,0.00,,---,0.00,VWS V14.00,2013-05-14 09:51:00,
2013-05-14 04:53:00,57.4,51.9,29.15,SW,223,0.0,0.0,82,0.00,,---,0.00,VWS V14.00,2013-05-14 09:53:00,
2013-05-14 04:59:00,57.4,51.6,29.15,SW,223,0.0,0.0,81,0.00,,---,0.00,VWS V14.00,2013-05-14 09:59:00,
2013-05-14 05:02:00,57.5,51.8,29.18,SW,223,0.0,0.0,81,0.00,,---,0.00,VWS V14.00,2013-05-14 10:02:00,
2013-05-14 05:05:00,57.7,51.6,29.18,SW,223,0.0,0.0,80,0.00,,---,0.00,VWS V14.00,2013-05-14 10:05:00,
2013-05-14 05:06:00,57.7,51.6,29.18,SW,223,0.0,0.0,80,0.00,,---,0.00,VWS V14.00,2013-05-14 10:06:00,
2013-05-14 05:11:00,57.7,51.6,29.18,SW,223,0.0,0.0,80,0.00,,---,0.00,VWS V14.00,2013-05-14 10:11:00,
2013-05-14 05:17:00,57.5,51.4,29.18,SW,223,0.0,0.0,80,0.00,,---,0.00,VWS V14.00,2013-05-14 10:17:00,
2013-05-14 05:21:00,57.4,51.2,29.18,SW,223,0.0,0.0,80,0.00,,---,0.00,VWS V14.00,2013-05-14 10:21:00,
2013-05-14 05:23:00,57.4,51.6,29.18,SW,223,0.0,0.0,81,0.00,,---,0.00,VWS V14.00,2013-05-14 10:23:00,
2013-05-14 05:26:00,57.0,51.2,29.18,SW,223,0.0,0.0,81,0.00,,---,0.00,VWS V14.00,2013-05-14 10:26:00,
2013-05-14 05:29:00,56.8,51.4,29.18,SW,223,0.0,0.0,82,0.00,,---,0.00,VWS V14.00,2013-05-14 10:29:00,
2013-05-14 05:32:00,56.8,51.4,29.18,SW,223,0.0,0.0,82,0.00,,---,0.00,VWS V14.00,2013-05-14 10:32:00,
2013-05-14 05:35:00,56.6,51.2,29.18,SW,223,0.0,0.0,82,0.00,,---,0.00,VWS V14.00,2013-05-14 10:35:00,
2013-05-14 05:36:00,56.6,51.2,29.18,SW,223,0.0,0.0,82,0.00,,---,0.00,VWS V14.00,2013-05-14 10:36:00,
2013-05-14 05:41:00,56.6,51.5,29.18,SW,223,0.0,0.0,83,0.00,,---,0.00,VWS V14.00,2013-05-14 10:41:00,
2013-05-14 05:44:00,56.8,51.7,29.18,SW,223,0.0,0.0,83,0.00,,---,0.00,VWS V14.00,2013-05-14 10:44:00,
2013-05-14 05:47:00,56.8,52.0,29.18,SW,223,0.0,0.0,84,0.00,,---,0.00,VWS V14.00,2013-05-14 10:47:00,
2013-05-14 05:51:00,57.0,51.9,29.18,SW,223,0.0,0.0,83,0.00,,---,0.00,VWS V14.00,2013-05-14 10:51:00,
2013-05-14 05:53:00,57.0,51.9,29.18,SW,223,0.0,0.0,83,0.00,,---,0.00,VWS V14.00,2013-05-14 10:53:00,
2013-05-14 05:59:00,57.0,51.9,29.18,SW,223,0.0,0.0,83,0.00,,---,0.00,VWS V14.00,2013-05-14 10:59:00,
2013-05-14 06:03:00,56.8,51.7,29.18,SW,223,0.0,0.0,83,0.00,,---,0.00,VWS V14.00,2013-05-14 11:03:00,
2013-05-14 06:09:00,56.6,51.5,29.18,SW,223,0.0,0.0,83,0.00,,---,0.00,VWS V14.00,2013-05-14 11:09:00,
2013-05-14 06:12:00,56.5,51.4,29.18,SW,223,0.0,0.0,83,0.00,,---,0.00,VWS V14.00,2013-05-14 11:12:00,
2013-05-14 06:15:00,56.3,51.2,29.18,SW,223,0.0,0.0,83,0.00,,---,0.00,VWS V14.00,2013-05-14 11:15:00,
2013-05-14 06:21:00,56.3,51.5,29.18,SW,223,0.0,0.0,84,0.00,,---,0.00,VWS V14.00,2013-05-14 11:21:00,
2013-05-14 06:27:00,56.5,52.0,29.18,SW,223,0.0,0.0,85,0.00,,---,0.00,VWS V14.00,2013-05-14 11:27:00,
2013-05-14 06:30:00,56.6,52.2,29.18,SW,223,0.0,0.0,85,0.00,,---,0.00,VWS V14.00,2013-05-14 11:30:00,
2013-05-14 06:36:00,56.5,52.0,29.18,SW,223,0.0,0.0,85,0.00,,---,0.00,VWS V14.00,2013-05-14 11:36:00,
2013-05-14 06:39:00,56.5,51.7,29.18,SW,223,0.0,0.0,84,0.00,,---,0.00,VWS V14.00,2013-05-14 11:39:00,
2013-05-14 06:42:00,56.5,51.7,29.18,SW,223,0.0,0.0,84,0.00,,---,0.00,VWS V14.00,2013-05-14 11:42:00,
2013-05-14 06:48:00,56.6,52.2,29.18,SW,223,0.0,0.0,85,0.00,,---,0.00,VWS V14.00,2013-05-14 11:48:00,
2013-05-14 06:51:00,56.8,52.4,29.18,SW,223,0.0,0.0,85,0.00,,---,0.00,VWS V14.00,2013-05-14 11:51:00,
2013-05-14 06:57:00,57.2,52.7,29.18,SW,223,0.0,0.0,85,0.00,,---,0.00,VWS V14.00,2013-05-14 11:57:00,
2013-05-14 07:03:00,57.2,52.4,29.18,SW,223,0.0,0.0,84,0.00,,---,0.00,VWS V14.00,2013-05-14 12:03:00,
2013-05-14 07:06:00,57.4,52.6,29.18,SW,223,0.0,0.0,84,0.00,,---,0.00,VWS V14.00,2013-05-14 12:06:00,
2013-05-14 07:12:00,57.9,53.4,29.18,SW,223,0.0,0.0,85,0.00,,---,0.00,VWS V14.00,2013-05-14 12:12:00,
2013-05-14 07:15:00,58.3,53.8,29.18,SW,223,0.0,0.0,85,0.00,,---,0.00,VWS V14.00,2013-05-14 12:15:00,
2013-05-14 07:18:00,58.6,54.1,29.18,SW,223,0.0,0.0,85,0.00,,---,0.00,VWS V14.00,2013-05-14 12:18:00,
2013-05-14 07:21:00,58.8,54.0,29.18,SW,223,0.0,0.0,84,0.00,,---,0.00,VWS V14.00,2013-05-14 12:21:00,
2013-05-14 07:24:00,59.0,54.2,29.18,SW,223,0.0,0.0,84,0.00,,---,0.00,VWS V14.00,2013-05-14 12:24:00,
2013-05-14 07:27:00,59.3,54.5,29.18,SW,223,0.0,0.0,84,0.00,,---,0.00,VWS V14.00,2013-05-14 12:27:00,
2013-05-14 07:30:00,59.5,54.4,29.18,SSW,205,0.0,0.0,83,0.00,,---,0.00,VWS V14.00,2013-05-14 12:30:00,
2013-05-14 07:33:00,59.7,54.5,29.18,SSW,205,0.0,0.0,83,0.00,,---,0.00,VWS V14.00,2013-05-14 12:33:00,
2013-05-14 07:36:00,59.9,54.7,29.18,SSW,205,0.0,0.0,83,0.00,,---,0.00,VWS V14.00,2013-05-14 12:36:00,
2013-05-14 07:39:00,60.2,55.1,29.18,SSW,205,0.0,0.0,83,0.00,,---,0.00,VWS V14.00,2013-05-14 12:39:00,
2013-05-14 07:45:00,60.8,55.3,29.18,SSW,205,0.0,0.0,82,0.00,,---,0.00,VWS V14.00,2013-05-14 12:45:00,
2013-05-14 07:48:00,61.0,55.1,29.18,SSW,205,0.0,0.0,81,0.00,,---,0.00,VWS V14.00,2013-05-14 12:48:00,
2013-05-14 07:51:00,61.3,55.5,29.18,SSW,205,0.0,0.0,81,0.00,,---,0.00,VWS V14.00,2013-05-14 12:51:00,
2013-05-14 07:54:00,61.5,55.3,29.18,SSW,205,0.0,0.0,80,0.00,,---,0.00,VWS V14.00,2013-05-14 12:54:00,
2013-05-14 07:57:00,61.9,55.3,29.18,SSW,205,0.0,0.0,79,0.00,,---,0.00,VWS V14.00,2013-05-14 12:57:00,
2013-05-14 08:00:00,62.0,55.1,29.18,SSW,205,0.0,0.0,78,0.00,,---,0.00,VWS V14.00,2013-05-14 13:00:00,
2013-05-14 08:06:00,62.4,54.8,29.18,SSW,205,0.0,0.0,76,0.00,,---,0.00,VWS V14.00,2013-05-14 13:06:00,
2013-05-14 08:12:00,63.1,55.1,29.18,SSW,205,0.0,0.0,75,0.00,,---,0.00,VWS V14.00,2013-05-14 13:12:00,
2013-05-14 08:15:00,63.5,55.1,29.18,SSW,205,0.0,0.0,74,0.00,,---,0.00,VWS V14.00,2013-05-14 13:15:00,
2013-05-14 08:21:00,63.8,54.7,29.18,SSW,205,0.0,0.0,72,0.00,,---,0.00,VWS V14.00,2013-05-14 13:21:00,
2013-05-14 08:24:00,64.2,54.6,29.18,SSW,205,0.0,0.0,71,0.00,,---,0.00,VWS V14.00,2013-05-14 13:24:00,
2013-05-14 08:27:00,64.6,55.0,29.18,SSW,205,0.0,0.0,71,0.00,,---,0.00,VWS V14.00,2013-05-14 13:27:00,
2013-05-14 08:30:00,64.7,54.7,29.18,SSW,205,0.0,0.0,70,0.00,,---,0.00,VWS V14.00,2013-05-14 13:30:00,
2013-05-14 08:33:00,65.1,54.7,29.18,SSW,205,0.0,0.0,69,0.00,,---,0.00,VWS V14.00,2013-05-14 13:33:00,
2013-05-14 08:36:00,65.3,54.5,29.18,SSW,205,0.0,0.0,68,0.00,,---,0.00,VWS V14.00,2013-05-14 13:36:00,
2013-05-14 08:39:00,65.6,54.8,29.18,SSW,205,0.0,0.0,68,0.00,,---,0.00,VWS V14.00,2013-05-14 13:39:00,
2013-05-14 08:42:00,66.0,54.7,29.18,SSW,205,0.0,0.0,67,0.00,,---,0.00,VWS V14.00,2013-05-14 13:42:00,
2013-05-14 08:48:00,66.5,54.4,29.21,SSW,205,0.0,0.0,65,0.00,,---,0.00,VWS V14.00,2013-05-14 13:48:00,
2013-05-14 08:51:00,66.7,54.2,29.21,SSW,205,0.0,0.0,64,0.00,,---,0.00,VWS V14.00,2013-05-14 13:51:00,
2013-05-14 08:57:00,67.4,54.0,29.21,SSW,205,0.0,0.0,62,0.00,,---,0.00,VWS V14.00,2013-05-14 13:57:00,
2013-05-14 09:00:00,67.8,53.9,29.21,SSW,205,0.0,0.0,61,0.00,,---,0.00,VWS V14.00,2013-05-14 14:00:00,
2013-05-14 09:03:00,68.0,53.6,29.21,SSW,205,0.0,0.0,60,0.00,,---,0.00,VWS V14.00,2013-05-14 14:03:00,
2013-05-14 09:06:00,68.3,53.5,29.21,SSW,205,0.0,0.0,59,0.00,,---,0.00,VWS V14.00,2013-05-14 14:06:00,
2013-05-14 09:09:00,68.7,53.3,29.21,SSW,205,0.0,0.0,58,0.00,,---,0.00,VWS V14.00,2013-05-14 14:09:00,
2013-05-14 09:12:00,69.1,53.7,29.21,SSW,205,0.0,0.0,58,0.00,,---,0.00,VWS V14.00,2013-05-14 14:12:00,
2013-05-14 09:18:00,69.6,53.7,29.21,SSW,205,0.0,0.0,57,0.00,,---,0.00,VWS V14.00,2013-05-14 14:18:00,
2013-05-14 09:21:00,70.0,53.6,29.21,SSW,205,0.0,0.0,56,0.00,,---,0.00,VWS V14.00,2013-05-14 14:21:00,
2013-05-14 09:24:00,70.1,53.7,29.21,SSW,205,0.0,0.0,56,0.00,,---,0.00,VWS V14.00,2013-05-14 14:24:00,
2013-05-14 09:27:00,70.5,54.1,29.21,SSW,205,0.0,0.0,56,0.00,,---,0.00,VWS V14.00,2013-05-14 14:27:00,
2013-05-14 09:30:00,70.9,53.9,29.21,SSW,205,0.0,0.0,55,0.00,,---,0.00,VWS V14.00,2013-05-14 14:30:00,
2013-05-14 09:33:00,71.0,54.1,29.21,SSW,205,0.0,0.0,55,0.00,,---,0.00,VWS V14.00,2013-05-14 14:33:00,
2013-05-14 09:36:00,71.2,54.2,29.21,SSW,205,0.0,0.0,55,0.00,,---,0.00,VWS V14.00,2013-05-14 14:36:00,
2013-05-14 09:42:00,71.8,53.7,29.21,SSW,205,0.0,2.2,53,0.00,,---,0.00,VWS V14.00,2013-05-14 14:42:00,
2013-05-14 09:45:00,72.1,54.1,29.21,SSW,205,0.0,2.2,53,0.00,,---,0.00,VWS V14.00,2013-05-14 14:45:00,
2013-05-14 09:48:00,72.5,54.4,29.21,SSW,205,0.0,2.2,53,0.00,,---,0.00,VWS V14.00,2013-05-14 14:48:00,
2013-05-14 09:51:00,72.8,54.7,29.21,SSW,205,0.0,2.2,53,0.00,,---,0.00,VWS V14.00,2013-05-14 14:51:00,
2013-05-14 09:55:00,73.0,54.4,29.21,SSW,205,0.0,0.0,52,0.00,,---,0.00,VWS V14.00,2013-05-14 14:55:00,
2013-05-14 10:01:00,73.7,54.5,29.21,SSW,205,0.0,0.0,51,0.00,,---,0.00,VWS V14.00,2013-05-14 15:01:00,
2013-05-14 10:04:00,74.1,54.8,29.21,SSW,205,0.0,0.0,51,0.00,,---,0.00,VWS V14.00,2013-05-14 15:04:00,
2013-05-14 10:07:00,74.5,55.2,29.21,North,2,0.0,2.2,51,0.00,,---,0.00,VWS V14.00,2013-05-14 15:07:00,
2013-05-14 10:10:00,74.6,54.8,29.21,North,0,0.0,2.2,50,0.00,,---,0.00,VWS V14.00,2013-05-14 15:10:00,
2013-05-14 10:13:00,75.0,55.1,29.21,North,0,0.0,2.2,50,0.00,,---,0.00,VWS V14.00,2013-05-14 15:13:00,
2013-05-14 10:19:00,75.5,55.1,29.21,NNE,30,0.0,2.2,49,0.00,,---,0.00,VWS V14.00,2013-05-14 15:19:00,
2013-05-14 10:22:00,75.9,54.2,29.21,WNW,295,2.2,2.7,47,0.00,,---,0.00,VWS V14.00,2013-05-14 15:22:00,
2013-05-14 10:25:00,76.3,54.0,29.21,WSW,247,0.0,2.7,46,0.00,,---,0.00,VWS V14.00,2013-05-14 15:25:00,
2013-05-14 10:28:00,76.4,54.2,29.21,North,1,0.0,2.7,46,0.00,,---,0.00,VWS V14.00,2013-05-14 15:28:00,
2013-05-14 10:31:00,77.0,54.0,29.21,NNE,13,0.0,2.7,45,0.00,,---,0.00,VWS V14.00,2013-05-14 15:31:00,
2013-05-14 10:36:00,77.5,53.9,29.21,NE,54,0.0,2.7,44,0.00,,---,0.00,VWS V14.00,2013-05-14 15:36:00,
2013-05-14 10:37:00,77.5,53.9,29.21,NE,54,0.0,0.0,44,0.00,,---,0.00,VWS V14.00,2013-05-14 15:37:00,
2013-05-14 10:43:00,78.2,54.6,29.21,NE,54,0.0,0.0,44,0.00,,---,0.00,VWS V14.00,2013-05-14 15:43:00,
2013-05-14 10:46:00,78.4,54.1,29.21,North,357,0.0,0.0,43,0.00,,---,0.00,VWS V14.00,2013-05-14 15:46:00,
2013-05-14 10:49:00,78.8,54.4,29.21,NW,320,0.0,0.0,43,0.00,,---,0.00,VWS V14.00,2013-05-14 15:49:00,
2013-05-14 10:51:00,79.0,53.9,29.21,North,357,0.0,2.2,42,0.00,,---,0.00,VWS V14.00,2013-05-14 15:51:00,
2013-05-14 10:52:00,79.0,53.9,29.21,North,357,0.0,0.0,42,0.00,,---,0.00,VWS V14.00,2013-05-14 15:52:00,
2013-05-14 10:58:00,79.5,54.4,29.21,SW,223,3.1,3.1,42,0.00,,---,0.00,VWS V14.00,2013-05-14 15:58:00,
2013-05-14 11:01:00,79.9,54.1,29.21,NNW,344,0.0,4.9,41,0.00,,---,0.00,VWS V14.00,2013-05-14 16:01:00,
2013-05-14 11:06:00,80.2,54.4,29.21,NNW,328,0.0,4.9,41,0.00,,---,0.00,VWS V14.00,2013-05-14 16:06:00,
2013-05-14 11:07:00,80.2,54.4,29.21,SSW,199,0.0,0.0,41,0.00,,---,0.00,VWS V14.00,2013-05-14 16:07:00,
2013-05-14 11:13:00,80.8,54.2,29.21,NE,47,0.0,2.2,40,0.00,,---,0.00,VWS V14.00,2013-05-14 16:13:00,
2013-05-14 11:16:00,80.8,54.2,29.21,SW,230,0.0,2.7,40,0.00,,---,0.00,VWS V14.00,2013-05-14 16:16:00,
2013-05-14 11:19:00,81.1,54.5,29.21,SSE,168,0.0,2.7,40,0.00,,---,0.00,VWS V14.00,2013-05-14 16:19:00,
2013-05-14 11:25:00,81.8,54.5,29.21,NNE,32,0.0,0.0,39,0.00,,---,0.00,VWS V14.00,2013-05-14 16:25:00,
2013-05-14 11:28:00,82.0,54.6,29.21,WSW,240,0.0,3.1,39,0.00,,---,0.00,VWS V14.00,2013-05-14 16:28:00,
2013-05-14 11:31:00,82.2,54.8,29.21,WSW,237,0.0,3.1,39,0.00,,---,0.00,VWS V14.00,2013-05-14 16:31:00,
2013-05-14 11:34:00,82.6,54.4,29.21,NNW,333,0.0,3.1,38,0.00,,---,0.00,VWS V14.00,2013-05-14 16:34:00,
2013-05-14 11:36:00,82.6,54.4,29.21,North,353,0.0,3.1,38,0.00,,---,0.00,VWS V14.00,2013-05-14 16:36:00,
2013-05-14 11:37:00,82.7,54.6,29.21,NW,316,0.0,0.0,38,0.00,,---,0.00,VWS V14.00,2013-05-14 16:37:00,
2013-05-14 11:40:00,82.7,54.6,29.21,WNW,295,0.0,0.0,38,0.00,,---,0.00,VWS V14.00,2013-05-14 16:40:00,
2013-05-14 11:43:00,83.1,54.9,29.21,SSW,213,0.0,0.0,38,0.00,,---,0.00,VWS V14.00,2013-05-14 16:43:00,
2013-05-14 11:46:00,83.1,54.9,29.21,NNW,342,0.0,0.0,38,0.00,,---,0.00,VWS V14.00,2013-05-14 16:46:00,
2013-05-14 11:49:00,83.6,54.6,29.21,SSW,207,2.7,4.5,37,0.00,,---,0.00,VWS V14.00,2013-05-14 16:49:00,
2013-05-14 11:51:00,83.6,54.6,29.21,SSW,207,0.0,4.5,37,0.00,,---,0.00,VWS V14.00,2013-05-14 16:51:00,
2013-05-14 11:58:00,84.4,54.5,29.21,WSW,244,0.0,3.6,36,0.00,,---,0.00,VWS V14.00,2013-05-14 16:58:00,
2013-05-14 12:01:00,84.5,54.7,29.21,South,176,0.0,3.6,36,0.00,,---,0.00,VWS V14.00,2013-05-14 17:01:00,
2013-05-14 12:04:00,84.7,55.6,29.18,SSW,210,0.0,3.6,37,0.00,,---,0.00,VWS V14.00,2013-05-14 17:04:00,
2013-05-14 12:07:00,85.1,55.9,29.18,NNE,19,0.0,0.0,37,0.00,,---,0.00,VWS V14.00,2013-05-14 17:07:00,
2013-05-14 12:10:00,85.1,54.4,29.18,NW,325,0.0,0.0,35,0.00,,---,0.00,VWS V14.00,2013-05-14 17:10:00,
2013-05-14 12:13:00,85.3,55.3,29.18,West,274,0.0,0.0,36,0.00,,---,0.00,VWS V14.00,2013-05-14 17:13:00,
2013-05-14 12:16:00,85.4,54.7,29.18,North,0,0.0,2.2,35,0.00,,---,0.00,VWS V14.00,2013-05-14 17:16:00,
2013-05-14 12:19:00,85.6,54.9,29.18,SW,234,0.0,2.7,35,0.00,,---,0.00,VWS V14.00,2013-05-14 17:19:00,
2013-05-14 12:22:00,85.6,54.1,29.18,NNE,14,2.7,3.1,34,0.00,,---,0.00,VWS V14.00,2013-05-14 17:22:00,
2013-05-14 12:25:00,85.8,54.2,29.18,East,87,0.0,3.1,34,0.00,,---,0.00,VWS V14.00,2013-05-14 17:25:00,
2013-05-14 12:28:00,85.8,53.4,29.18,NE,50,0.0,3.1,33,0.00,,---,0.00,VWS V14.00,2013-05-14 17:28:00,
2013-05-14 12:31:00,86.0,53.6,29.18,NNE,28,0.0,3.1,33,0.00,,---,0.00,VWS V14.00,2013-05-14 17:31:00,
2013-05-14 12:34:00,86.0,53.6,29.18,NNE,21,2.2,4.0,33,0.00,,---,0.00,VWS V14.00,2013-05-14 17:34:00,
2013-05-14 12:36:00,86.0,53.6,29.18,SE,136,0.0,4.0,33,0.00,,---,0.00,VWS V14.00,2013-05-14 17:36:00,
2013-05-14 12:37:00,86.2,53.7,29.18,NNW,337,0.0,0.0,33,0.00,,---,0.00,VWS V14.00,2013-05-14 17:37:00,
2013-05-14 12:43:00,86.5,54.0,29.18,East,93,2.2,4.0,33,0.00,,---,0.00,VWS V14.00,2013-05-14 17:43:00,
2013-05-14 12:46:00,86.7,53.3,29.18,SSW,202,0.0,4.0,32,0.00,,---,0.00,VWS V14.00,2013-05-14 17:46:00,
2013-05-14 12:51:00,86.7,53.3,29.18,NNE,21,0.0,4.0,32,0.00,,---,0.00,VWS V14.00,2013-05-14 17:51:00,
2013-05-14 12:52:00,86.9,53.5,29.18,North,9,0.0,0.0,32,0.00,,---,0.00,VWS V14.00,2013-05-14 17:52:00,
2013-05-14 12:55:00,87.1,54.5,29.18,NNW,327,0.0,2.2,33,0.00,,---,0.00,VWS V14.00,2013-05-14 17:55:00,
2013-05-14 13:01:00,87.2,53.8,29.18,WSW,249,0.0,2.2,32,0.00,,---,0.00,VWS V14.00,2013-05-14 18:01:00,
2013-05-14 13:04:00,87.2,53.8,29.18,SE,140,0.0,2.2,32,0.00,,---,0.00,VWS V14.00,2013-05-14 18:04:00,
2013-05-14 13:06:00,87.2,53.8,29.18,South,187,0.0,3.1,32,0.00,,---,0.00,VWS V14.00,2013-05-14 18:06:00,
2013-05-14 13:07:00,87.2,53.8,29.18,South,181,3.6,4.0,32,0.00,,---,0.00,VWS V14.00,2013-05-14 18:07:00,
2013-05-14 13:13:00,88.0,54.4,29.18,NNE,22,0.0,5.4,32,0.00,,---,0.00,VWS V14.00,2013-05-14 18:13:00,
2013-05-14 13:16:00,88.0,54.4,29.18,SSW,193,0.0,5.4,32,0.00,,---,0.00,VWS V14.00,2013-05-14 18:16:00,
2013-05-14 13:19:00,88.1,53.7,29.18,SSW,205,4.0,5.4,31,0.00,,---,0.00,VWS V14.00,2013-05-14 18:19:00,
2013-05-14 13:21:00,88.1,53.7,29.18,NNE,21,0.0,5.4,31,0.00,,---,0.00,VWS V14.00,2013-05-14 18:21:00,
2013-05-14 13:22:00,88.3,53.9,29.18,ESE,105,0.0,0.0,31,0.00,,---,0.00,VWS V14.00,2013-05-14 18:22:00,
2013-05-14 13:25:00,88.3,53.9,29.18,NNE,15,0.0,0.0,31,0.00,,---,0.00,VWS V14.00,2013-05-14 18:25:00,
2013-05-14 13:28:00,88.3,53.9,29.18,North,353,2.2,3.1,31,0.00,,---,0.00,VWS V14.00,2013-05-14 18:28:00,
2013-05-14 13:31:00,88.5,53.1,29.15,SW,231,0.0,5.4,30,0.00,,---,0.00,VWS V14.00,2013-05-14 18:31:00,
2013-05-14 13:34:00,88.7,53.3,29.15,North,2,0.0,5.4,30,0.00,,---,0.00,VWS V14.00,2013-05-14 18:34:00,
2013-05-14 13:37:00,88.9,53.5,29.15,WSW,258,0.0,3.6,30,0.00,,---,0.00,VWS V14.00,2013-05-14 18:37:00,
2013-05-14 13:40:00,88.9,53.5,29.15,WSW,238,0.0,3.6,30,0.00,,---,0.00,VWS V14.00,2013-05-14 18:40:00,
2013-05-14 13:43:00,89.2,53.8,29.15,North,353,0.0,3.6,30,0.00,,---,0.00,VWS V14.00,2013-05-14 18:43:00,
2013-05-14 13:46:00,89.2,53.8,29.15,NW,313,3.1,4.0,30,0.00,,---,0.00,VWS V14.00,2013-05-14 18:46:00,
2013-05-14 13:49:00,89.4,53.0,29.15,SE,142,2.2,4.0,29,0.00,,---,0.00,VWS V14.00,2013-05-14 18:49:00,
2013-05-14 13:52:00,89.4,53.0,29.15,East,100,0.0,3.6,29,0.00,,---,0.00,VWS V14.00,2013-05-14 18:52:00,
2013-05-14 13:55:00,89.6,53.2,29.15,NE,36,0.0,3.6,29,0.00,,---,0.00,VWS V14.00,2013-05-14 18:55:00,
2013-05-14 13:59:00,89.6,53.2,29.15,NNE,23,0.0,5.4,29,0.00,,---,0.00,VWS V14.00,2013-05-14 18:59:00,
2013-05-14 14:02:00,89.6,52.2,29.15,WNW,290,0.0,5.4,28,0.00,,---,0.00,VWS V14.00,2013-05-14 19:02:00,
2013-05-14 14:08:00,89.8,53.3,29.15,NE,44,0.0,0.0,29,0.00,,---,0.00,VWS V14.00,2013-05-14 19:08:00,
2013-05-14 14:11:00,89.8,53.3,29.15,NE,36,0.0,2.2,29,0.00,,---,0.00,VWS V14.00,2013-05-14 19:11:00,
2013-05-14 14:17:00,90.1,52.7,29.15,NE,37,0.0,3.1,28,0.00,,---,0.00,VWS V14.00,2013-05-14 19:17:00,
2013-05-14 14:20:00,90.1,52.7,29.15,WNW,301,0.0,4.5,28,0.00,,---,0.00,VWS V14.00,2013-05-14 19:20:00,
2013-05-14 14:21:00,90.1,52.7,29.15,ESE,123,0.0,4.5,28,0.00,,---,0.00,VWS V14.00,2013-05-14 19:21:00,
2013-05-14 14:23:00,90.1,52.7,29.15,SE,139,0.0,3.1,28,0.00,,---,0.00,VWS V14.00,2013-05-14 19:23:00,
2013-05-14 14:26:00,90.3,52.8,29.15,NW,326,0.0,3.1,28,0.00,,---,0.00,VWS V14.00,2013-05-14 19:26:00,
2013-05-14 14:32:00,90.5,53.0,29.15,SSW,206,0.0,5.8,28,0.00,,---,0.00,VWS V14.00,2013-05-14 19:32:00,
2013-05-14 14:35:00,90.7,53.1,29.15,SSW,201,0.0,5.8,28,0.00,,---,0.00,VWS V14.00,2013-05-14 19:35:00,
2013-05-14 14:38:00,90.7,53.1,29.15,NE,37,0.0,4.0,28,0.00,,---,0.00,VWS V14.00,2013-05-14 19:38:00,
2013-05-14 14:41:00,90.7,52.1,29.15,NNE,22,0.0,5.4,27,0.00,,---,0.00,VWS V14.00,2013-05-14 19:41:00,
2013-05-14 14:44:00,90.7,53.1,29.15,NW,323,0.0,6.3,28,0.00,,---,0.00,VWS V14.00,2013-05-14 19:44:00,
2013-05-14 14:47:00,90.7,53.1,29.15,SSW,211,0.0,6.3,28,0.00,,---,0.00,VWS V14.00,2013-05-14 19:47:00,
2013-05-14 14:50:00,90.7,53.1,29.15,SSW,198,0.0,6.3,28,0.00,,---,0.00,VWS V14.00,2013-05-14 19:50:00,
2013-05-14 14:51:00,90.7,53.1,29.15,SSW,195,0.0,6.3,28,0.00,,---,0.00,VWS V14.00,2013-05-14 19:51:00,
2013-05-14 14:56:00,90.8,53.3,29.15,SSW,205,2.2,4.0,28,0.00,,---,0.00,VWS V14.00,2013-05-14 19:56:00,
2013-05-14 14:59:00,91.0,53.4,29.15,NE,43,0.0,4.0,28,0.00,,---,0.00,VWS V14.00,2013-05-14 19:59:00,
2013-05-14 15:02:00,91.0,53.4,29.15,East,85,5.8,5.8,28,0.00,,---,0.00,VWS V14.00,2013-05-14 20:02:00,
2013-05-14 15:05:00,91.2,52.6,29.15,East,91,0.0,5.8,27,0.00,,---,0.00,VWS V14.00,2013-05-14 20:05:00,
2013-05-14 15:06:00,91.2,52.6,29.15,NE,34,2.7,5.8,27,0.00,,---,0.00,VWS V14.00,2013-05-14 20:06:00,
2013-05-14 15:08:00,91.2,52.6,29.15,NNE,28,0.0,3.1,27,0.00,,---,0.00,VWS V14.00,2013-05-14 20:08:00,
2013-05-14 15:11:00,91.2,52.6,29.15,South,175,0.0,3.1,27,0.00,,---,0.00,VWS V14.00,2013-05-14 20:11:00,
2013-05-14 15:14:00,91.2,52.6,29.15,NNE,29,0.0,3.1,27,0.00,,---,0.00,VWS V14.00,2013-05-14 20:14:00,
2013-05-14 15:17:00,91.4,52.7,29.15,South,180,2.7,4.0,27,0.00,,---,0.00,VWS V14.00,2013-05-14 20:17:00,
2013-05-14 15:20:00,91.6,52.9,29.12,East,86,0.0,4.0,27,0.00,,---,0.00,VWS V14.00,2013-05-14 20:20:00,
2013-05-14 15:21:00,91.6,52.9,29.12,East,86,0.0,4.0,27,0.00,,---,0.00,VWS V14.00,2013-05-14 20:21:00,
2013-05-14 15:26:00,91.7,53.0,29.12,NNE,12,2.7,5.4,27,0.00,,---,0.00,VWS V14.00,2013-05-14 20:26:00,
2013-05-14 15:32:00,91.9,53.2,29.12,NNE,32,0.0,5.4,27,0.00,,---,0.00,VWS V14.00,2013-05-14 20:32:00,
2013-05-14 15:35:00,92.1,53.3,29.12,NE,48,0.0,5.4,27,0.00,,---,0.00,VWS V14.00,2013-05-14 20:35:00,
2013-05-14 15:41:00,92.3,53.5,29.12,SSW,195,2.7,4.0,27,0.00,,---,0.00,VWS V14.00,2013-05-14 20:41:00,
2013-05-14 15:47:00,92.3,53.5,29.12,SSE,160,0.0,4.0,27,0.00,,---,0.00,VWS V14.00,2013-05-14 20:47:00,
2013-05-14 15:50:00,92.3,53.5,29.12,South,185,0.0,4.5,27,0.00,,---,0.00,VWS V14.00,2013-05-14 20:50:00,
2013-05-14 15:51:00,92.3,53.5,29.12,SE,138,0.0,4.5,27,0.00,,---,0.00,VWS V14.00,2013-05-14 20:51:00,
2013-05-14 15:53:00,92.3,53.5,29.12,NW,316,0.0,0.0,27,0.00,,---,0.00,VWS V14.00,2013-05-14 20:53:00,
2013-05-14 15:56:00,92.3,53.5,29.12,SSW,196,0.0,7.6,27,0.00,,---,0.00,VWS V14.00,2013-05-14 20:56:00,
2013-05-14 15:59:00,92.3,53.5,29.12,North,11,0.0,7.6,27,0.00,,---,0.00,VWS V14.00,2013-05-14 20:59:00,
2013-05-14 16:02:00,92.5,53.7,29.12,ENE,63,0.0,7.6,27,0.00,,---,0.00,VWS V14.00,2013-05-14 21:02:00,
2013-05-14 16:06:00,92.6,53.8,29.12,NNE,19,2.7,7.6,27,0.00,,---,0.00,VWS V14.00,2013-05-14 21:06:00,
2013-05-14 16:08:00,92.6,53.8,29.12,SSE,162,0.0,2.7,27,0.00,,---,0.00,VWS V14.00,2013-05-14 21:08:00,
2013-05-14 16:14:00,93.7,54.7,29.12,WSW,255,3.6,3.6,27,0.00,,---,0.00,VWS V14.00,2013-05-14 21:14:00,
2013-05-14 16:17:00,94.3,55.2,29.12,SSE,161,0.0,4.9,27,0.00,,---,0.00,VWS V14.00,2013-05-14 21:17:00,
2013-05-14 16:20:00,94.8,54.6,29.12,SSE,149,0.0,4.9,26,0.00,,---,0.00,VWS V14.00,2013-05-14 21:20:00,
2013-05-14 16:23:00,95.7,55.4,29.12,SW,214,0.0,0.0,26,0.00,,---,0.00,VWS V14.00,2013-05-14 21:23:00,
2013-05-14 16:26:00,97.0,56.4,29.12,SW,223,0.0,2.7,26,0.00,,---,0.00,VWS V14.00,2013-05-14 21:26:00,
2013-05-14 16:32:00,98.0,56.2,29.12,South,184,0.0,2.7,25,0.00,,---,0.00,VWS V14.00,2013-05-14 21:32:00,
2013-05-14 16:35:00,98.9,55.9,29.12,SSW,197,6.3,6.3,24,0.00,,---,0.00,VWS V14.00,2013-05-14 21:35:00,
2013-05-14 16:36:00,99.1,56.0,29.12,SSW,196,0.0,6.3,24,0.00,,---,0.00,VWS V14.00,2013-05-14 21:36:00,
2013-05-14 16:38:00,99.3,57.3,29.12,SSW,206,2.7,2.7,25,0.00,,---,0.00,VWS V14.00,2013-05-14 21:38:00,
2013-05-14 16:41:00,99.8,57.8,29.12,South,189,0.0,3.1,25,0.00,,---,0.00,VWS V14.00,2013-05-14 21:41:00,
2013-05-14 16:47:00,100.6,56.0,29.12,South,182,0.0,3.1,23,0.00,,---,0.00,VWS V14.00,2013-05-14 21:47:00,
2013-05-14 16:50:00,101.3,55.4,29.12,NNW,338,0.0,4.5,22,0.00,,---,0.00,VWS V14.00,2013-05-14 21:50:00,
2013-05-14 16:51:00,101.5,55.6,29.12,South,184,0.0,4.5,22,0.00,,---,0.00,VWS V14.00,2013-05-14 21:51:00,
2013-05-14 16:53:00,101.6,54.4,29.12,SSW,212,0.0,4.9,21,0.00,,---,0.00,VWS V14.00,2013-05-14 21:53:00,
2013-05-14 16:59:00,102.0,53.4,29.12,SW,218,3.6,5.8,20,0.00,,---,0.00,VWS V14.00,2013-05-14 21:59:00,
2013-05-14 17:02:00,102.0,52.0,29.12,SW,232,3.6,5.8,19,0.00,,---,0.00,VWS V14.00,2013-05-14 22:02:00,
2013-05-14 17:05:00,102.2,50.7,29.12,South,177,2.7,5.8,18,0.00,,---,0.00,VWS V14.00,2013-05-14 22:05:00,
2013-05-14 17:08:00,102.7,52.6,29.12,SE,128,0.0,0.0,19,0.00,,---,0.00,VWS V14.00,2013-05-14 22:08:00,
2013-05-14 17:11:00,102.4,50.8,29.12,South,190,0.0,5.4,18,0.00,,---,0.00,VWS V14.00,2013-05-14 22:11:00,
2013-05-14 17:14:00,102.7,51.1,29.12,SSW,212,0.0,5.4,18,0.00,,---,0.00,VWS V14.00,2013-05-14 22:14:00,
2013-05-14 17:20:00,103.1,51.4,29.12,SW,230,0.0,5.4,18,0.00,,---,0.00,VWS V14.00,2013-05-14 22:20:00,
2013-05-14 17:26:00,102.7,51.1,29.12,SSW,201,2.7,5.4,18,0.00,,---,0.00,VWS V14.00,2013-05-14 22:26:00,
2013-05-14 17:29:00,102.4,50.8,29.12,SSE,147,0.0,5.4,18,0.00,,---,0.00,VWS V14.00,2013-05-14 22:29:00,
2013-05-14 17:32:00,101.5,48.6,29.12,SSE,147,0.0,5.4,17,0.00,,---,0.00,VWS V14.00,2013-05-14 22:32:00,
2013-05-14 17:35:00,100.4,47.7,29.12,SSE,147,0.0,6.7,17,0.00,,---,0.00,VWS V14.00,2013-05-14 22:35:00,
2013-05-14 17:36:00,100.2,49.1,29.12,SW,222,4.0,6.7,18,0.00,,---,0.00,VWS V14.00,2013-05-14 22:36:00,
2013-05-14 17:38:00,99.5,48.5,29.12,SSE,147,0.0,7.2,18,0.00,,---,0.00,VWS V14.00,2013-05-14 22:38:00,
2013-05-14 17:41:00,98.8,47.9,29.12,South,187,2.7,7.2,18,0.00,,---,0.00,VWS V14.00,2013-05-14 22:41:00,
2013-05-14 17:44:00,97.7,47.1,29.12,South,181,4.0,7.6,18,0.00,,---,0.00,VWS V14.00,2013-05-14 22:44:00,
2013-05-14 17:47:00,97.0,47.9,29.09,SSW,193,0.0,7.6,19,0.00,,---,0.00,VWS V14.00,2013-05-14 22:47:00,
2013-05-14 17:50:00,95.9,49.7,29.09,SSW,200,5.8,7.6,21,0.00,,---,0.00,VWS V14.00,2013-05-14 22:50:00,
2013-05-14 17:51:00,95.5,49.4,29.09,South,189,4.0,7.6,21,0.00,,---,0.00,VWS V14.00,2013-05-14 22:51:00,
2013-05-14 17:53:00,95.0,49.0,29.09,SW,216,3.1,8.3,21,0.00,,---,0.00,VWS V14.00,2013-05-14 22:53:00,
2013-05-14 17:56:00,94.1,49.5,29.09,SE,133,2.2,8.3,22,0.00,,---,0.00,VWS V14.00,2013-05-14 22:56:00,
2013-05-14 17:59:00,93.9,48.1,29.09,South,174,3.6,16.8,21,0.00,,---,0.00,VWS V14.00,2013-05-14 22:59:00,
2013-05-14 18:02:00,93.4,48.9,29.12,ESE,122,2.2,16.8,22,0.00,,---,0.00,VWS V14.00,2013-05-14 23:02:00,
2013-05-14 18:05:00,93.0,48.6,29.12,SSE,155,3.6,16.8,22,0.00,,---,0.00,VWS V14.00,2013-05-14 23:05:00,
2013-05-14 18:06:00,92.8,49.6,29.12,SSE,148,3.1,16.8,23,0.00,,---,0.00,VWS V14.00,2013-05-14 23:06:00,
2013-05-14 18:08:00,92.3,49.2,29.12,SSE,157,3.6,5.4,23,0.00,,---,0.00,VWS V14.00,2013-05-14 23:08:00,
2013-05-14 18:11:00,91.6,48.6,29.12,SSE,168,4.0,6.3,23,0.00,,---,0.00,VWS V14.00,2013-05-14 23:11:00,
2013-05-14 18:14:00,90.8,49.1,29.12,SE,146,2.7,7.6,24,0.00,,---,0.00,VWS V14.00,2013-05-14 23:14:00,
2013-05-14 18:17:00,90.1,48.5,29.12,SE,138,3.1,7.6,24,0.00,,---,0.00,VWS V14.00,2013-05-14 23:17:00,
2013-05-14 18:20:00,89.6,48.0,29.12,South,176,5.8,7.6,24,0.00,,---,0.00,VWS V14.00,2013-05-14 23:20:00,
2013-05-14 18:21:00,89.6,48.0,29.12,South,171,3.6,7.6,24,0.00,,---,0.00,VWS V14.00,2013-05-14 23:21:00,
2013-05-14 18:23:00,89.2,48.8,29.12,SE,142,0.0,7.6,25,0.00,,---,0.00,VWS V14.00,2013-05-14 23:23:00,
2013-05-14 18:26:00,88.9,49.6,29.12,SSW,210,4.0,7.6,26,0.00,,---,0.00,VWS V14.00,2013-05-14 23:26:00,
2013-05-14 18:29:00,88.7,49.4,29.12,SE,145,2.7,7.6,26,0.00,,---,0.00,VWS V14.00,2013-05-14 23:29:00,
2013-05-14 18:32:00,88.5,49.3,29.09,SSE,156,0.0,7.6,26,0.00,,---,0.00,VWS V14.00,2013-05-14 23:32:00,
2013-05-14 18:35:00,88.3,49.1,29.09,SSE,151,2.2,7.6,26,0.00,,---,0.00,VWS V14.00,2013-05-14 23:35:00,
2013-05-14 18:38:00,87.8,48.7,29.09,South,171,5.8,5.8,26,0.00,,---,0.00,VWS V14.00,2013-05-14 23:38:00,
2013-05-14 18:41:00,87.4,49.4,29.09,SSE,163,2.2,5.8,27,0.00,,---,0.00,VWS V14.00,2013-05-14 23:41:00,
2013-05-14 18:47:00,86.7,49.7,29.12,SE,130,0.0,5.8,28,0.00,,---,0.00,VWS V14.00,2013-05-14 23:47:00,
2013-05-14 18:50:00,86.2,49.3,29.12,SSE,167,5.8,6.3,28,0.00,,---,0.00,VWS V14.00,2013-05-14 23:50:00,
2013-05-14 18:51:00,86.2,49.3,29.12,ESE,121,5.8,6.3,28,0.00,,---,0.00,VWS V14.00,2013-05-14 23:51:00,
2013-05-14 18:56:00,85.3,49.4,29.12,SE,131,2.2,5.8,29,0.00,,---,0.00,VWS V14.00,2013-05-14 23:56:00,
2013-05-14 18:59:00,85.1,49.3,29.12,SE,143,3.1,5.8,29,0.00,,---,0.00,VWS V14.00,2013-05-14 23:59:00,
2013-05-14 19:02:00,84.7,49.0,29.12,South,182,0.0,5.8,29,0.00,,---,0.00,VWS V14.00,2013-05-15 00:02:00,
2013-05-14 19:05:00,84.4,48.7,29.09,South,183,0.0,5.8,29,0.00,,---,0.00,VWS V14.00,2013-05-15 00:05:00,
2013-05-14 19:06:00,84.4,48.7,29.09,South,183,0.0,5.8,29,0.00,,---,0.00,VWS V14.00,2013-05-15 00:06:00,
2013-05-14 19:08:00,84.0,48.4,29.09,South,175,4.0,4.0,29,0.00,,---,0.00,VWS V14.00,2013-05-15 00:08:00,
2013-05-14 19:11:00,83.6,49.0,29.09,SSE,164,3.6,4.9,30,0.00,,---,0.00,VWS V14.00,2013-05-15 00:11:00,
2013-05-14 19:14:00,83.5,48.8,29.09,SSE,164,3.6,6.3,30,0.00,,---,0.00,VWS V14.00,2013-05-15 00:14:00,
2013-05-14 19:17:00,83.1,48.5,29.12,South,185,5.4,6.3,30,0.00,,---,0.00,VWS V14.00,2013-05-15 00:17:00,
2013-05-14 19:20:00,82.9,49.2,29.12,South,183,3.6,6.3,31,0.00,,---,0.00,VWS V14.00,2013-05-15 00:20:00,
2013-05-14 19:21:00,82.9,49.2,29.12,South,183,3.1,6.3,31,0.00,,---,0.00,VWS V14.00,2013-05-15 00:21:00,
2013-05-14 19:26:00,82.6,48.9,29.12,South,171,4.9,6.3,31,0.00,,---,0.00,VWS V14.00,2013-05-15 00:26:00,
2013-05-14 19:29:00,82.4,48.7,29.12,SSE,149,0.0,6.3,31,0.00,,---,0.00,VWS V14.00,2013-05-15 00:29:00,
2013-05-14 19:35:00,81.8,49.1,29.12,South,175,6.3,6.3,32,0.00,,---,0.00,VWS V14.00,2013-05-15 00:35:00,
2013-05-14 19:36:00,81.8,49.1,29.12,SSE,168,3.1,6.3,32,0.00,,---,0.00,VWS V14.00,2013-05-15 00:36:00,
2013-05-14 19:41:00,81.5,48.8,29.12,SSE,158,3.1,5.4,32,0.00,,---,0.00,VWS V14.00,2013-05-15 00:41:00,
2013-05-14 19:44:00,81.3,48.7,29.12,SE,144,3.1,5.4,32,0.00,,---,0.00,VWS V14.00,2013-05-15 00:44:00,
2013-05-14 19:47:00,80.9,48.3,29.12,SSE,163,3.1,5.4,32,0.00,,---,0.00,VWS V14.00,2013-05-15 00:47:00,
2013-05-14 19:50:00,80.8,49.0,29.12,South,183,5.4,5.4,33,0.00,,---,0.00,VWS V14.00,2013-05-15 00:50:00,
2013-05-14 19:53:00,80.6,48.8,29.12,SSE,150,2.7,4.0,33,0.00,,---,0.00,VWS V14.00,2013-05-15 00:53:00,
2013-05-14 19:56:00,80.4,48.7,29.12,South,170,2.2,4.0,33,0.00,,---,0.00,VWS V14.00,2013-05-15 00:56:00,
2013-05-14 19:59:00,80.2,48.5,29.12,SE,144,3.6,5.4,33,0.00,,---,0.00,VWS V14.00,2013-05-15 00:59:00,
2013-05-14 20:02:00,80.0,48.4,29.12,ESE,113,0.0,5.4,33,0.00,,---,0.00,VWS V14.00,2013-05-15 01:02:00,
2013-05-14 20:05:00,79.9,48.2,29.12,SSE,153,2.7,5.4,33,0.00,,---,0.00,VWS V14.00,2013-05-15 01:05:00,
2013-05-14 20:06:00,79.9,48.2,29.12,SSE,153,2.7,5.4,33,0.00,,---,0.00,VWS V14.00,2013-05-15 01:06:00,
2013-05-14 20:11:00,79.5,48.7,29.12,South,173,0.0,4.9,34,0.00,,---,0.00,VWS V14.00,2013-05-15 01:11:00,
2013-05-14 20:14:00,79.5,48.7,29.12,South,173,0.0,4.9,34,0.00,,---,0.00,VWS V14.00,2013-05-15 01:14:00,
2013-05-14 20:18:00,79.1,48.4,29.12,South,173,0.0,4.9,34,0.00,,---,0.00,VWS V14.00,2013-05-15 01:18:00,
2013-05-14 20:21:00,79.0,48.2,29.12,South,173,0.0,4.9,34,0.00,,---,0.00,VWS V14.00,2013-05-15 01:21:00,
2013-05-14 20:24:00,78.8,48.1,29.12,South,173,0.0,0.0,34,0.00,,---,0.00,VWS V14.00,2013-05-15 01:24:00,
2013-05-14 20:27:00,78.6,47.9,29.12,South,173,0.0,0.0,34,0.00,,---,0.00,VWS V14.00,2013-05-15 01:27:00,
2013-05-14 20:33:00,78.2,48.4,29.12,SE,137,0.0,0.0,35,0.00,,---,0.00,VWS V14.00,2013-05-15 01:33:00,
2013-05-14 20:36:00,77.9,48.1,29.12,SE,137,0.0,0.0,35,0.00,,---,0.00,VWS V14.00,2013-05-15 01:36:00,
2013-05-14 20:39:00,77.9,48.1,29.12,SE,137,0.0,0.0,35,0.00,,---,0.00,VWS V14.00,2013-05-15 01:39:00,
2013-05-14 20:42:00,77.7,47.9,29.12,SE,137,0.0,0.0,35,0.00,,---,0.00,VWS V14.00,2013-05-15 01:42:00,
2013-05-14 20:45:00,77.3,48.3,29.12,South,172,0.0,2.7,36,0.00,,---,0.00,VWS V14.00,2013-05-15 01:45:00,
2013-05-14 20:48:00,77.3,48.3,29.12,SSE,152,2.2,4.0,36,0.00,,---,0.00,VWS V14.00,2013-05-15 01:48:00,
2013-05-14 20:51:00,77.2,47.4,29.12,SSE,152,2.2,4.0,35,0.00,,---,0.00,VWS V14.00,2013-05-15 01:51:00,
2013-05-14 20:57:00,77.0,48.0,29.12,SSE,152,0.0,2.2,36,0.00,,---,0.00,VWS V14.00,2013-05-15 01:57:00,
2013-05-14 21:03:00,76.6,47.7,29.12,SSE,152,0.0,2.2,36,0.00,,---,0.00,VWS V14.00,2013-05-15 02:03:00,
2013-05-14 21:06:00,76.6,47.7,29.12,SSE,154,0.0,0.0,36,0.00,,---,0.00,VWS V14.00,2013-05-15 02:06:00,
2013-05-14 21:12:00,76.4,48.3,29.12,SSE,154,0.0,0.0,37,0.00,,---,0.00,VWS V14.00,2013-05-15 02:12:00,
2013-05-14 21:18:00,76.1,48.0,29.12,South,178,0.0,0.0,37,0.00,,---,0.00,VWS V14.00,2013-05-15 02:18:00,
2013-05-14 21:21:00,76.1,48.7,29.12,ESE,122,0.0,0.0,38,0.00,,---,0.00,VWS V14.00,2013-05-15 02:21:00,
2013-05-14 21:24:00,75.9,48.5,29.12,South,176,0.0,2.2,38,0.00,,---,0.00,VWS V14.00,2013-05-15 02:24:00,
2013-05-14 21:30:00,75.7,48.3,29.12,SSW,198,0.0,2.7,38,0.00,,---,0.00,VWS V14.00,2013-05-15 02:30:00,
2013-05-14 21:33:00,75.5,48.9,29.12,SSW,199,0.0,4.0,39,0.00,,---,0.00,VWS V14.00,2013-05-15 02:33:00,
2013-05-14 21:36:00,75.4,48.7,29.12,SSW,199,0.0,4.0,39,0.00,,---,0.00,VWS V14.00,2013-05-15 02:36:00,
2013-05-14 21:42:00,74.8,49.6,29.12,SSW,207,0.0,3.1,41,0.00,,---,0.00,VWS V14.00,2013-05-15 02:42:00,
2013-05-14 21:45:00,74.6,49.4,29.12,SSW,207,0.0,3.1,41,0.00,,---,0.00,VWS V14.00,2013-05-15 02:45:00,
2013-05-14 21:48:00,74.1,49.6,29.12,SSW,207,0.0,3.1,42,0.00,,---,0.00,VWS V14.00,2013-05-15 02:48:00,
2013-05-14 21:51:00,73.7,49.2,29.12,SSW,207,0.0,3.1,42,0.00,,---,0.00,VWS V14.00,2013-05-15 02:51:00,
2013-05-14 21:54:00,73.4,49.5,29.12,SSW,207,0.0,0.0,43,0.00,,---,0.00,VWS V14.00,2013-05-15 02:54:00,
2013-05-14 21:57:00,73.0,49.8,29.12,SSW,207,0.0,0.0,44,0.00,,---,0.00,VWS V14.00,2013-05-15 02:57:00,
2013-05-14 22:00:00,72.8,49.7,29.12,SSW,207,0.0,0.0,44,0.00,,---,0.00,VWS V14.00,2013-05-15 03:00:00,
2013-05-14 22:03:00,72.8,49.7,29.12,SSW,207,0.0,0.0,44,0.00,,---,0.00,VWS V14.00,2013-05-15 03:03:00,
2013-05-14 22:06:00,72.7,49.5,29.12,SSW,207,0.0,0.0,44,0.00,,---,0.00,VWS V14.00,2013-05-15 03:06:00,
2013-05-14 22:09:00,72.5,49.3,29.12,SSW,207,0.0,0.0,44,0.00,,---,0.00,VWS V14.00,2013-05-15 03:09:00,
2013-05-14 22:12:00,72.5,50.0,29.12,SSW,207,0.0,0.0,45,0.00,,---,0.00,VWS V14.00,2013-05-15 03:12:00,
2013-05-14 22:15:00,72.5,50.0,29.12,SSW,205,3.6,3.6,45,0.00,,---,0.00,VWS V14.00,2013-05-15 03:15:00,
2013-05-14 22:18:00,72.3,49.8,29.15,SSW,205,0.0,3.6,45,0.00,,---,0.00,VWS V14.00,2013-05-15 03:18:00,
2013-05-14 22:24:00,72.1,49.6,29.15,SSW,205,0.0,4.0,45,0.00,,---,0.00,VWS V14.00,2013-05-15 03:24:00,
2013-05-14 22:27:00,71.9,50.1,29.15,SSW,205,0.0,4.0,46,0.00,,---,0.00,VWS V14.00,2013-05-15 03:27:00,
2013-05-14 22:30:00,71.6,49.7,29.15,SSW,205,0.0,4.0,46,0.00,,---,0.00,VWS V14.00,2013-05-15 03:30:00,
2013-05-14 22:36:00,71.0,50.4,29.15,SSW,205,0.0,4.0,48,0.00,,---,0.00,VWS V14.00,2013-05-15 03:36:00,
2013-05-14 22:39:00,71.2,50.5,29.15,SW,218,0.0,0.0,48,0.00,,---,0.00,VWS V14.00,2013-05-15 03:39:00,
2013-05-14 22:42:00,71.2,50.5,29.15,SW,218,0.0,0.0,48,0.00,,---,0.00,VWS V14.00,2013-05-15 03:42:00,
2013-05-14 22:48:00,71.2,50.5,29.15,SSE,152,0.0,2.2,48,0.00,,---,0.00,VWS V14.00,2013-05-15 03:48:00,
2013-05-14 22:51:00,71.4,50.7,29.15,SSW,206,0.0,2.2,48,0.00,,---,0.00,VWS V14.00,2013-05-15 03:51:00,
2013-05-14 22:57:00,71.4,50.1,29.15,SSE,167,0.0,6.3,47,0.00,,---,0.00,VWS V14.00,2013-05-15 03:57:00,
2013-05-14 23:00:00,71.4,50.7,29.15,SSE,165,0.0,6.3,48,0.00,,---,0.00,VWS V14.00,2013-05-15 04:00:00,
2013-05-14 23:03:00,71.4,50.7,29.15,SSE,165,0.0,6.3,48,0.00,,---,0.00,VWS V14.00,2013-05-15 04:03:00,
2013-05-14 23:06:00,71.6,50.9,29.15,SSW,194,3.1,6.3,48,0.00,,---,0.00,VWS V14.00,2013-05-15 04:06:00,
2013-05-14 23:12:00,71.6,50.9,29.15,South,170,4.0,5.4,48,0.00,,---,0.00,VWS V14.00,2013-05-15 04:12:00,
2013-05-14 23:15:00,71.6,50.9,29.15,WSW,239,2.2,5.8,48,0.00,,---,0.00,VWS V14.00,2013-05-15 04:15:00,
2013-05-14 23:18:00,71.6,50.9,29.15,SE,137,3.1,5.8,48,0.00,,---,0.00,VWS V14.00,2013-05-15 04:18:00,
2013-05-14 23:21:00,71.6,50.9,29.15,SSE,154,2.2,5.8,48,0.00,,---,0.00,VWS V14.00,2013-05-15 04:21:00,
2013-05-14 23:27:00,71.6,50.9,29.15,SSE,165,2.7,5.4,48,0.00,,---,0.00,VWS V14.00,2013-05-15 04:27:00,
2013-05-14 23:30:00,71.6,50.9,29.15,SSE,152,3.1,5.4,48,0.00,,---,0.00,VWS V14.00,2013-05-15 04:30:00,
2013-05-14 23:33:00,71.6,50.9,29.15,SE,142,0.0,5.4,48,0.00,,---,0.00,VWS V14.00,2013-05-15 04:33:00,
2013-05-14 23:36:00,71.6,50.9,29.15,SSE,163,3.1,3.6,48,0.00,,---,0.00,VWS V14.00,2013-05-15 04:36:00,
2013-05-14 23:42:00,71.6,51.4,29.15,SE,135,0.0,3.6,49,0.00,,---,0.00,VWS V14.00,2013-05-15 04:42:00,
2013-05-14 23:48:00,71.6,51.4,29.15,SSE,151,2.7,3.6,49,0.00,,---,0.00,VWS V14.00,2013-05-15 04:48:00,
2013-05-14 23:51:00,71.6,51.4,29.15,SSE,147,2.2,2.2,49,0.00,,---,0.00,VWS V14.00,2013-05-15 04:51:00,
2013-05-14 23:54:00,71.6,51.4,29.15,South,170,2.2,4.0,49,0.00,,---,0.00,VWS V14.00,2013-05-15 04:54:00,
2013-05-14 23:57:00,71.4,51.3,29.15,SE,124,0.0,4.0,49,0.00,,---,0.00,VWS V14.00,2013-05-15 04:57:00,